TimeAEST,TemperatureF,Dew PointF,Humidity,Sea Level PressureIn,VisibilityMPH,Wind Direction,Wind SpeedMPH,Gust SpeedMPH,PrecipitationIn,Events,Conditions,WindDirDegrees,DateUTC
12:00 AM,71,67,84,30.08,,SE,11.5,,,,Overcast,140,2012-10-02 14:00:00
12:00 AM,71.6,68.0,88,30.06,5.0,SE,11.5,-,N/A,Rain,Rain Showers,140,2012-10-02 14:00:00
12:16 AM,71.6,68.0,88,30.06,3.1,ESE,9.2,-,N/A,Rain,Rain Showers,110,2012-10-02 14:16:00
12:30 AM,69.8,68.0,94,30.06,5.0,South,10.4,-,N/A,Rain,Light Rain Showers,180,2012-10-02 14:30:00
12:43 AM,69.8,68.0,94,30.06,6.2,South,9.2,-,N/A,,Mostly Cloudy,190,2012-10-02 14:43:00
1:00 AM,71,66,81,30.07,,SSW,10.4,,,,,200,2012-10-02 15:00:00
1:00 AM,71.6,66.2,83,30.06,6.2,SSW,10.4,-,N/A,,Mostly Cloudy,200,2012-10-02 15:00:00
1:30 AM,71.6,66.2,83,30.04,6.2,South,10.4,-,N/A,Rain,Light Rain Showers,180,2012-10-02 15:30:00
2:00 AM,71.6,66.2,83,30.04,6.2,SSE,9.2,-,N/A,,Mostly Cloudy,160,2012-10-02 16:00:00
2:30 AM,73.4,66.2,78,30.04,6.2,South,8.1,-,N/A,,Mostly Cloudy,170,2012-10-02 16:30:00
3:00 AM,72,66,75,30.02,,SE,8.1,,,,Overcast,140,2012-10-02 17:00:00
3:00 AM,71.6,66.2,83,30.01,6.2,SE,8.1,-,N/A,,Mostly Cloudy,130,2012-10-02 17:00:00
3:30 AM,71.6,66.2,83,30.01,6.2,South,10.4,-,N/A,,Light Drizzle,180,2012-10-02 17:30:00
4:00 AM,71,67,83,30.04,,South,8.1,,,,,180,2012-10-02 18:00:00
4:00 AM,71.6,66.2,83,30.04,5.0,South,8.1,-,N/A,Rain,Light Rain Showers,180,2012-10-02 18:00:00
4:22 AM,69.8,68.0,94,30.04,3.1,SSE,11.5,-,N/A,Rain,Light Rain Showers,160,2012-10-02 18:22:00
4:30 AM,71.6,68.0,88,30.04,3.1,SSE,12.7,-,N/A,Rain,Light Rain Showers,150,2012-10-02 18:30:00
4:49 AM,69.8,66.2,88,30.04,6.2,South,6.9,-,N/A,,Mostly Cloudy,180,2012-10-02 18:49:00
5:00 AM,71.6,66.2,83,30.04,6.2,South,8.1,-,N/A,,Mostly Cloudy,190,2012-10-02 19:00:00
5:30 AM,71.6,66.2,83,30.04,6.2,South,9.2,-,N/A,Rain,Light Rain Showers,190,2012-10-02 19:30:00
6:00 AM,71,66,79,30.04,6,South,3.5,,,Rain,Light Rain Showers,180,2012-10-02 20:00:00
6:00 AM,71.6,66.2,83,30.04,6.2,South,3.5,-,N/A,Rain,Light Rain Showers,180,2012-10-02 20:00:00
6:30 AM,69.8,68.0,94,30.04,5.6,South,8.1,-,N/A,,Mostly Cloudy,170,2012-10-02 20:30:00
6:40 AM,69.8,68.0,94,30.06,3.7,South,9.2,-,N/A,Rain,Light Rain Showers,180,2012-10-02 20:40:00
7:00 AM,70,68,91,30.08,,South,11.5,,,,,170,2012-10-02 21:00:00
7:00 AM,69.8,68.0,94,30.06,6.2,South,11.5,-,N/A,,Overcast,170,2012-10-02 21:00:00
7:30 AM,69.8,68.0,94,30.06,5.0,South,10.4,-,N/A,,Overcast,170,2012-10-02 21:30:00
7:47 AM,71.6,68.0,88,30.09,3.7,SSE,9.2,-,N/A,Rain,Light Rain Showers,160,2012-10-02 21:47:00
8:00 AM,69.8,68.0,94,30.09,3.7,SE,9.2,-,N/A,Rain,Light Rain Showers,130,2012-10-02 22:00:00
8:30 AM,71.6,68.0,88,30.09,5.6,SE,17.3,-,N/A,,Mostly Cloudy,130,2012-10-02 22:30:00
9:00 AM,71,68,89,30.11,4,SSE,11.5,,,Rain,Light Rain Showers,160,2012-10-02 23:00:00
9:00 AM,71.6,68.0,88,30.09,3.7,SSE,11.5,-,N/A,Rain,Light Rain Showers,160,2012-10-02 23:00:00
9:30 AM,71.6,66.2,83,30.12,3.7,SSE,17.3,-,N/A,,Overcast,150,2012-10-02 23:30:00
10:00 AM,72,67,80,30.12,,SSE,9.2,,,,,160,2012-10-03 00:00:00
10:00 AM,71.6,68.0,88,30.09,3.7,SSE,9.2,-,N/A,,Mostly Cloudy,160,2012-10-03 00:00:00
10:19 AM,71.6,68.0,88,30.12,1.9,SSE,15.0,-,N/A,Rain,Rain Showers,160,2012-10-03 00:19:00
10:30 AM,71.6,69.8,94,30.09,3.1,SSE,13.8,-,N/A,Rain,Light Rain Showers,160,2012-10-03 00:30:00
10:40 AM,71.6,68.0,88,30.09,1.9,South,12.7,-,N/A,Rain,Rain Showers,170,2012-10-03 00:40:00
11:00 AM,69.8,68.0,94,30.09,3.7,South,11.5,-,N/A,Rain,Light Rain Showers,170,2012-10-03 01:00:00
11:16 AM,71.6,68.0,88,30.09,6.2,South,11.5,-,N/A,,Mostly Cloudy,170,2012-10-03 01:16:00
11:30 AM,71.6,68.0,88,30.09,6.2,SSE,12.7,-,N/A,,Mostly Cloudy,160,2012-10-03 01:30:00
12:00 PM,72,68,83,30.09,5,South,10.4,,,Rain,Light Rain Showers,180,2012-10-03 02:00:00
12:00 PM,71.6,68.0,88,30.06,5.0,South,10.4,-,N/A,Rain,Light Rain Showers,180,2012-10-03 02:00:00
12:30 PM,73.4,69.8,88,30.06,6.2,South,10.4,-,N/A,,Mostly Cloudy,170,2012-10-03 02:30:00
12:39 PM,75.2,66.2,73,30.06,6.2,SE,17.3,-,N/A,,Mostly Cloudy,130,2012-10-03 02:39:00
1:00 PM,76,68,69,30.07,,SE,19.6,,,,,130,2012-10-03 03:00:00
1:00 PM,77.0,68.0,74,30.06,6.2,SE,19.6,-,N/A,Rain,Light Rain Showers,130,2012-10-03 03:00:00
1:30 PM,78.8,66.2,65,30.04,6.2,SE,24.2,-,N/A,,Scattered Clouds,130,2012-10-03 03:30:00
2:00 PM,80.6,62.6,54,30.04,6.2,SE,23.0,-,N/A,,Scattered Clouds,130,2012-10-03 04:00:00
2:30 PM,80.6,64.4,58,30.04,6.2,SE,21.9,-,N/A,,Scattered Clouds,130,2012-10-03 04:30:00
3:00 PM,80,65,52,30.03,7,SE,18.4,,,,Mostly Cloudy,140,2012-10-03 05:00:00
3:00 PM,80.6,66.2,61,30.01,6.2,SE,18.4,-,N/A,,Scattered Clouds,140,2012-10-03 05:00:00
3:10 PM,80.6,64.4,58,30.01,3.7,SSE,17.3,-,N/A,Rain,Light Rain Showers,150,2012-10-03 05:10:00
3:15 PM,75.2,68.0,78,30.01,3.7,SSE,19.6,31.1,N/A,Rain,Light Rain Showers,150,2012-10-03 05:15:00
3:30 PM,71.6,68.0,88,30.04,6.2,SSE,19.6,-,N/A,,Mostly Cloudy,160,2012-10-03 05:30:00
4:00 PM,72,68,83,30.05,,South,10.4,,,,,180,2012-10-03 06:00:00
4:00 PM,71.6,68.0,88,30.04,6.2,South,10.4,-,N/A,,Mostly Cloudy,180,2012-10-03 06:00:00
4:30 PM,73.4,66.2,78,30.04,6.2,South,10.4,-,N/A,,Mostly Cloudy,180,2012-10-03 06:30:00
4:51 PM,73.4,66.2,78,30.04,3.7,South,10.4,-,N/A,Rain,Light Rain Showers,180,2012-10-03 06:51:00
5:00 PM,69.8,68.0,94,30.04,1.9,South,11.5,-,N/A,Rain,Rain Showers,170,2012-10-03 07:00:00
5:30 PM,69.8,68.0,94,30.06,3.1,SSE,9.2,-,N/A,Rain,Light Rain Showers,160,2012-10-03 07:30:00
6:00 PM,70,67,89,30.06,,South,10.4,,,,Overcast,190,2012-10-03 08:00:00
6:00 PM,69.8,68.0,94,30.06,3.7,South,10.4,-,N/A,Rain,Light Rain Showers,190,2012-10-03 08:00:00
6:30 PM,69.8,66.2,88,30.06,6.2,South,10.4,-,N/A,,Mostly Cloudy,180,2012-10-03 08:30:00
7:00 PM,71,66,81,30.09,,South,11.5,,,,,170,2012-10-03 09:00:00
7:00 PM,71.6,66.2,83,30.06,6.2,South,11.5,-,N/A,,Mostly Cloudy,170,2012-10-03 09:00:00
7:30 PM,71.6,66.2,83,30.06,6.2,South,11.5,-,N/A,,Scattered Clouds,180,2012-10-03 09:30:00
8:00 PM,69.8,64.4,83,30.06,6.2,South,12.7,-,N/A,,Scattered Clouds,170,2012-10-03 10:00:00
8:30 PM,69.8,64.4,83,30.09,6.2,South,12.7,-,N/A,,Mostly Cloudy,170,2012-10-03 10:30:00
9:00 PM,70,65,78,30.10,,South,12.7,,,,Overcast,170,2012-10-03 11:00:00
9:00 PM,69.8,64.4,83,30.09,6.2,South,12.7,-,N/A,Rain,Light Rain Showers,170,2012-10-03 11:00:00
9:30 PM,69.8,64.4,83,30.09,6.2,South,11.5,-,N/A,,Mostly Cloudy,170,2012-10-03 11:30:00
10:00 PM,71,64,73,30.10,,South,12.7,,,,,170,2012-10-03 12:00:00
10:00 PM,71.6,64.4,78,30.09,6.2,South,12.7,-,N/A,,Mostly Cloudy,170,2012-10-03 12:00:00
10:30 PM,71.6,64.4,78,30.09,6.2,South,13.8,-,N/A,,Scattered Clouds,170,2012-10-03 12:30:00
11:00 PM,71.6,62.6,73,30.06,6.2,South,13.8,-,N/A,,Scattered Clouds,170,2012-10-03 13:00:00
11:30 PM,69.8,62.6,78,30.06,6.2,South,12.7,-,N/A,,Scattered Clouds,170,2012-10-03 13:30:00